This is the latest recevied weather packets stored in our database for station/object AE0NK. If no packets are shown the sender has not sent any weather packets the latest 10 day(s).
| Time | Temp. | Humidity | Pressure | Rain* | Wind** | Luminosity | Snow |
|---|---|---|---|---|---|---|---|
| 1777812802 | 10.56° C | 56% | 1011.9 hPa | 0 mm | - | 16 W/m² | - |
| 1777812501 | 10.56° C | 57% | 1012.2 hPa | 0 mm | - | 11 W/m² | - |
| 1777812199 | 10.56° C | 58% | 1012.4 hPa | 0 mm | - | 11 W/m² | - |
| 1777811896 | 10.56° C | 58% | 1012.4 hPa | 0 mm | - | 16 W/m² | - |
| 1777811596 | 10.56° C | 57% | 1012.2 hPa | 0 mm | - | 16 W/m² | - |
| 1777811294 | 10.56° C | 56% | 1012.4 hPa | 0 mm | - | 9 W/m² | - |
| 1777811007 | 10.56° C | 56% | 1012.6 hPa | 0 mm | - | 14 W/m² | - |
| 1777810705 | 10.56° C | 56% | 1012.7 hPa | 0 mm | - | 12 W/m² | - |
| 1777810401 | 10.56° C | 57% | 1012.7 hPa | 0 mm | - | 7 W/m² | - |
| 1777810118 | 10.56° C | 56% | 1012.1 hPa | 0 mm | - | 5 W/m² | - |
| 1777809810 | 10.56° C | 56% | 1012 hPa | 0 mm | - | 7 W/m² | - |
| 1777809507 | 10.56° C | 56% | 1012.1 hPa | 0 mm | - | 9 W/m² | - |
| 1777809205 | 10.56° C | 56% | 1012 hPa | 0 mm | - | 11 W/m² | - |
| 1777808901 | 10.56° C | 55% | 1012.2 hPa | 0 mm | - | 5 W/m² | - |
| 1777808597 | 10.56° C | 56% | 1011.7 hPa | 0 mm | - | 5 W/m² | - |
| 1777808296 | 10.56° C | 57% | 1011.3 hPa | 0 mm | - | 7 W/m² | - |
| 1777807995 | 10.56° C | 57% | 1011.7 hPa | 0 mm | - | 5 W/m² | - |
| 1777807695 | 10.56° C | 57% | 1011.7 hPa | 0 mm | - | 5 W/m² | - |
| 1777807392 | 10.56° C | 57% | 1011.7 hPa | 0 mm | - | 0 W/m² | - |
| 1777807092 | 10.56° C | 57% | 1011.6 hPa | 0 mm | - | 0 W/m² | - |
| 1777806791 | 10.56° C | 56% | 1012.3 hPa | 0 mm | - | 0 W/m² | - |
| 1777806491 | 10.56° C | 56% | 1012 hPa | 0 mm | - | 0 W/m² | - |
| 1777806209 | 10.56° C | 57% | 1012.1 hPa | 0 mm | - | 0 W/m² | - |
| 1777805903 | 10.56° C | 57% | 1012.8 hPa | 0 mm | - | 0 W/m² | - |
| 1777805601 | 10.56° C | 56% | 1013 hPa | 0 mm | - | 0 W/m² | - |
* Rain latest hour (hover to see other rain measurements)
** Current wind speed in m/s (hover to see current wind gust speed)